This is the latest recevied weather packets stored in our database for station/object JE6MIQ-13. If no packets are shown the sender has not sent any weather packets the latest 10 day(s).
| Time | Temp. | Humidity | Pressure | Rain* | Wind** | Luminosity | Snow |
|---|---|---|---|---|---|---|---|
| 1777969356 | 21.67° C | 29% | 1016.1 hPa | 0 mm | - | - | - |
| 1777968756 | 21.67° C | 29% | 1016.1 hPa | 0 mm | - | - | - |
| 1777968154 | 21.67° C | 29% | 1016.2 hPa | 0 mm | - | - | - |
| 1777967555 | 22.22° C | 29% | 1016.3 hPa | 0 mm | - | - | - |
| 1777966954 | 22.78° C | 29% | 1016.3 hPa | 0 mm | - | - | - |
| 1777966356 | 23.33° C | 29% | 1016.4 hPa | 0 mm | - | - | - |
| 1777965755 | 23.89° C | 29% | 1016.4 hPa | 0 mm | - | - | - |
| 1777965154 | 25.56° C | 29% | 1016.4 hPa | 0 mm | - | - | - |
| 1777964554 | 25° C | 29% | 1016.5 hPa | 0 mm | - | - | - |
| 1777963956 | 27.22° C | 29% | 1016.9 hPa | 0 mm | - | - | - |
| 1777963356 | 26.67° C | 29% | 1016.9 hPa | 0 mm | - | - | - |
| 1777962756 | 27.22° C | 29% | 1016.9 hPa | 0 mm | - | - | - |
| 1777962156 | 25.56° C | 29% | 1017.1 hPa | 0 mm | - | - | - |
| 1777961555 | 26.67° C | 29% | 1017.5 hPa | 0 mm | - | - | - |
| 1777960955 | 27.78° C | 29% | 1017.5 hPa | 0 mm | - | - | - |
| 1777960354 | 27.22° C | 29% | 1017.3 hPa | 0 mm | - | - | - |
| 1777959755 | 25.56° C | 29% | 1017.3 hPa | 0 mm | - | - | - |
| 1777959156 | 27.78° C | 29% | 1017.4 hPa | 0 mm | - | - | - |
| 1777958554 | 28.33° C | 29% | 1017.6 hPa | 0 mm | - | - | - |
| 1777957956 | 27.78° C | 29% | 1017.6 hPa | 0 mm | - | - | - |
| 1777957354 | 27.22° C | 29% | 1017.7 hPa | 0 mm | - | - | - |
| 1777956755 | 27.22° C | 29% | 1017.8 hPa | 0 mm | - | - | - |
| 1777956154 | 25° C | 29% | 1017.8 hPa | 0 mm | - | - | - |
| 1777955555 | 25° C | 29% | 1018.3 hPa | 0 mm | - | - | - |
| 1777954956 | 25° C | 29% | 1018.1 hPa | 0 mm | - | - | - |
* Rain latest hour (hover to see other rain measurements)
** Current wind speed in m/s (hover to see current wind gust speed)